CW5039 Weather Reports


Display with metric or nautical units.
time (UTC)temp
F
wind
direction
speed
MPH
gust
MPH
rain 1hr
in
rain 24hr
in
rain mn
in
humidity
%
barometer
mb
20260906175905 60 8 10.0 13.0 0.00 0.15 0.01 89 1001.0
20260906172405 61 6 12.0 16.0 0.00 0.15 0.01 88 1001.4
20260906171405 61 13 14.0 18.0 0.00 0.15 0.01 87 1001.4
20260906170905 61 3 13.0 18.0 0.00 0.15 0.01 88 1001.4
20260906165905 60 349 13.0 18.0 0.00 0.15 0.01 88 1001.5
20260906165405 60 5 10.0 16.0 0.00 0.15 0.01 88 1001.5
20260906164905 60 355 14.0 18.0 0.00 0.15 0.01 88 1001.6
20260906164405 60 10 11.0 14.0 0.00 0.15 0.01 88 1001.7
20260906163405 60 355 11.0 16.0 0.00 0.15 0.01 88 1001.8
20260906161905 60 10 9.0 13.0 0.00 0.15 0.01 87 1001.9
20260906155905 60 350 14.0 20.0 0.00 0.15 0.01 88 1002.1
20260906154905 60 352 14.0 20.0 0.00 0.15 0.01 88 1002.2
20260906154405 60 351 14.0 18.0 0.00 0.15 0.01 88 1002.4
20260906152905 60 351 16.0 21.0 0.00 0.15 0.01 88 1002.8
20260906151905 60 349 17.0 21.0 0.00 0.15 0.01 88 1003.0
20260906150405 60 343 15.0 21.0 0.00 0.15 0.01 87 1003.2
20260906144905 60 340 13.0 17.0 0.00 0.15 0.01 87 1003.6
20260906144405 60 344 13.0 17.0 0.00 0.15 0.01 87 1003.6
20260906143905 60 339 13.0 18.0 0.00 0.15 0.01 87 1003.9
20260906143405 60 342 13.0 16.0 0.00 0.15 0.01 88 1004.0
20260906142905 60 344 16.0 20.0 0.00 0.15 0.01 88 1004.1
20260906141904 60 346 14.0 17.0 0.00 0.15 0.01 87 1004.4
20260906141405 61 343 16.0 21.0 0.00 0.15 0.01 87 1004.4
20260906140905 61 339 17.0 22.0 0.00 0.15 0.01 87 1004.5
20260906140405 60 341 16.0 24.0 0.00 0.15 0.01 88 1004.6
20260906134405 60 338 17.0 22.0 0.00 0.15 0.01 88 1005.0
20260906132405 60 340 16.0 24.0 0.00 0.15 0.01 88 1005.5
20260906130404 60 342 14.0 20.0 0.01 0.15 0.01 89 1005.7
20260906125905 59 348 13.0 18.0 0.01 0.15 0.01 89 1005.8
20260906124904 60 349 14.0 20.0 0.01 0.15 0.01 88 1005.8
20260906124404 60 344 16.0 21.0 0.01 0.15 0.01 88 1005.9
20260906123905 60 342 15.0 18.0 0.01 0.15 0.01 89 1006.0
20260906121905 60 353 13.0 18.0 0.01 0.15 0.01 89 1006.1
20260906120908 60 347 16.0 23.0 0.01 0.15 0.01 90 1006.2
20260906115904 60 340 14.0 18.0 0.00 0.14 0.14 91 1006.3
20260906115404 59 349 14.0 18.0 0.00 0.14 0.14 91 1006.4
20260906114404 59 339 10.0 12.0 0.00 0.14 0.14 92 1006.5
20260906113405 59 331 8.0 10.0 0.00 0.14 0.14 92 1006.7
20260906112905 59 331 8.0 10.0 0.00 0.14 0.14 92 1006.7
20260906112406 59 329 8.0 10.0 0.00 0.14 0.14 92 1006.9
20260906111905 59 326 9.0 10.0 0.00 0.14 0.14 92 1006.9
20260906105905 59 317 9.0 12.0 0.00 0.14 0.14 92 1007.3
20260906105405 59 315 10.0 12.0 0.00 0.14 0.14 92 1007.3
20260906104904 59 311 9.0 12.0 0.00 0.14 0.14 92 1007.4
20260906104404 59 311 9.0 12.0 0.00 0.14 0.14 92 1007.4
20260906103905 59 310 10.0 12.0 0.00 0.14 0.14 92 1007.6
20260906103404 59 319 11.0 14.0 0.00 0.14 0.14 92 1007.7
20260906101904 59 335 9.0 12.0 0.01 0.14 0.14 92 1007.8
20260906101404 59 338 11.0 14.0 0.01 0.14 0.14 92 1007.8
20260906100904 59 323 12.0 15.0 0.01 0.14 0.14 92 1007.9
20260906095404 59 327 10.0 13.0 0.02 0.14 0.14 92 1008.1
20260906094905 58 325 10.0 14.0 0.02 0.14 0.14 92 1008.2
20260906094404 58 331 7.0 12.0 0.03 0.14 0.14 92 1008.2
20260906091905 57 340 7.0 10.0 0.06 0.13 0.13 92 1008.4
20260906091404 57 342 10.0 12.0 0.06 0.13 0.13 92 1008.5
20260906085404 57 343 10.0 13.0 0.06 0.12 0.12 91 1008.7
20260906084904 57 347 12.0 14.0 0.06 0.12 0.12 91 1008.8
20260906083404 57 357 12.0 17.0 0.04 0.10 0.10 91 1008.8
20260906081405 58 1 10.0 16.0 0.02 0.08 0.08 90 1008.9
20260906080904 58 350 13.0 15.0 0.02 0.08 0.08 89 1008.9
20260906080404 58 331 13.0 16.0 0.01 0.07 0.07 89 1009.0
20260906075404 59 332 14.0 18.0 0.00 0.06 0.06 87 1009.0
20260906074405 59 331 14.0 18.0 0.00 0.06 0.06 86 1009.1
20260906073904 59 332 16.0 21.0 0.00 0.06 0.06 86 1009.2
20260906072904 58 331 14.0 20.0 0.00 0.06 0.06 86 1009.3
20260906072405 58 331 15.0 20.0 0.00 0.06 0.06 86 1009.3
20260906070404 59 328 13.0 16.0 0.00 0.06 0.06 83 1009.5
20260906065905 59 333 15.0 20.0 0.00 0.06 0.06 83 1009.5
20260906065404 59 336 14.0 20.0 0.00 0.06 0.06 82 1009.5
20260906064905 59 335 14.0 20.0 0.00 0.06 0.06 82 1009.7
20260906063904 59 346 13.0 18.0 0.00 0.06 0.06 81 1009.7
20260906062905 59 346 13.0 15.0 0.00 0.06 0.06 80 1009.7
20260906062405 59 347 9.0 15.0 0.00 0.06 0.06 81 1009.7
20260906061904 59 346 10.0 14.0 0.00 0.06 0.06 81 1009.8
20260906061404 60 346 10.0 12.0 0.00 0.06 0.06 81 1009.8
20260906055904 60 354 7.0 12.0 0.00 0.06 0.06 82 1009.9
20260906055405 60 350 7.0 10.0 0.00 0.06 0.06 82 1010.0
20260906054904 60 337 6.0 10.0 0.00 0.06 0.06 81 1010.2
20260906053904 60 331 12.0 13.0 0.00 0.06 0.06 81 1010.4
20260906052404 60 328 10.0 12.0 0.00 0.06 0.06 80 1010.4
20260906050405 61 319 13.0 20.0 0.00 0.06 0.06 79 1010.5
20260906045404 61 313 13.0 15.0 0.00 0.06 0.06 79 1010.6
20260906044405 62 328 13.0 17.0 0.00 0.06 0.06 79 1010.6
20260906042904 62 309 14.0 17.0 0.00 0.06 0.06 80 1010.9
20260906042405 62 307 11.0 18.0 0.00 0.06 0.06 80 1011.0
20260906041404 62 309 12.0 16.0 0.00 0.06 0.06 79 1011.1
20260906040405 62 313 15.0 17.0 0.00 0.06 0.06 77 1011.2
20260906035405 63 309 16.0 20.0 0.00 0.06 0.06 76 1011.3
20260906034905 64 314 18.0 22.0 0.00 0.06 0.06 74 1011.4
20260906034405 64 313 21.0 26.0 0.00 0.06 0.06 74 1011.4
20260906033405 63 309 14.0 18.0 0.00 0.06 0.06 76 1011.5
20260906032904 63 312 13.0 20.0 0.00 0.06 0.06 74 1011.5
20260906032405 63 295 16.0 25.0 0.00 0.06 0.06 74 1011.7
20260906031404 64 309 12.0 14.0 0.00 0.06 0.06 74 1011.5
20260906024905 63 295 16.0 20.0 0.00 0.06 0.06 71 1012.0
20260906022904 63 291 13.0 18.0 0.00 0.06 0.06 72 1012.1
20260906022404 63 285 16.0 20.0 0.00 0.06 0.06 70 1012.2
20260906021904 63 284 16.0 20.0 0.00 0.06 0.06 69 1012.1
20260906020404 63 295 19.0 24.0 0.00 0.06 0.06 70 1012.2
20260906015904 64 306 15.0 22.0 0.00 0.06 0.06 73 1012.3
20260906014904 63 297 20.0 23.0 0.00 0.06 0.06 70 1012.5
20260906013905 64 293 15.0 21.0 0.00 0.06 0.06 73 1012.7
20260906012404 63 262 8.0 12.0 0.00 0.06 0.06 77 1012.9
20260906010904 62 289 3.0 6.0 0.00 0.06 0.06 80 1013.1
20260906010404 62 276 2.0 6.0 0.00 0.06 0.06 81 1013.2
20260906005904 61 233 5.0 9.0 0.00 0.06 0.06 83 1013.3
20260906003904 60 228 6.0 7.0 0.02 0.06 0.06 87 1013.7
20260905235904 58 229 4.0 6.0 0.03 0.06 0.06 89 1014.6
20260905235404 57 239 6.0 9.0 0.03 0.06 0.06 89 1014.7
20260905234904 57 231 6.0 10.0 0.03 0.06 0.06 89 1014.9
20260905233904 57 238 8.0 10.0 0.01 0.04 0.04 86 1015.1
20260905232904 58 246 6.0 8.0 0.00 0.03 0.03 85 1015.2
20260905232404 58 247 5.0 7.0 0.00 0.03 0.03 85 1015.3
20260905231904 58 249 5.0 7.0 0.00 0.03 0.03 85 1015.4
20260905231405 59 274 5.0 5.0 0.00 0.03 0.03 85 1015.4
20260905230404 58 287 6.0 8.0 0.00 0.03 0.03 87 1015.5
20260905225405 58 300 5.0 10.0 0.00 0.03 0.03 87 1015.6
20260905224904 58 293 8.0 10.0 0.00 0.03 0.03 87 1015.7
20260905222905 57 312 10.0 14.0 0.00 0.03 0.03 88 1016.2
20260905222404 58 313 10.0 17.0 0.00 0.03 0.03 88 1016.2
20260905221904 58 311 13.0 18.0 0.01 0.03 0.03 88 1016.1
20260905214906 57 325 11.0 13.0 0.03 0.03 0.03 91 1016.4
20260905214404 56 333 11.0 13.0 0.03 0.03 0.03 91 1016.3
20260905213404 55 328 9.0 12.0 0.03 0.03 0.03 91 1016.5
20260905212904 55 317 9.0 12.0 0.03 0.03 0.03 91 1016.6
20260905212404 55 332 9.0 12.0 0.03 0.03 0.03 90 1016.6
20260905211404 56 311 10.0 15.0 0.00 0.00 0.00 90 1016.7
20260905210904 56 315 11.0 14.0 0.00 0.00 0.00 91 1016.7
20260905210404 56 312 10.0 14.0 0.00 0.00 0.00 91 1016.6
20260905204405 55 321 7.0 12.0 0.00 0.00 0.00 93 1016.7
20260905203404 54 322 7.0 12.0 0.00 0.00 0.00 93 1016.7
20260905202905 53 331 6.0 9.0 0.00 0.00 0.00 93 1016.6
20260905202405 53 331 7.0 10.0 0.00 0.00 0.00 93 1016.7
20260905195905 50 338 5.0 6.0 0.00 0.00 0.00 93 1016.7
20260905195405 50 342 5.0 6.0 0.00 0.00 0.00 93 1016.7
20260905194405 49 355 5.0 5.0 0.00 0.00 0.00 93 1016.6
20260905192905 47 355 5.0 5.0 0.00 0.00 0.00 93 1016.5
20260905191906 48 355 4.0 5.0 0.00 0.00 0.00 93 1016.5
20260905191406 48 355 3.0 3.0 0.00 0.00 0.00 93 1016.5
20260905190905 46 355 3.0 3.0 0.00 0.00 0.00 93 1016.5
20260905190405 45 355 3.0 3.0 0.00 0.00 0.00 93 1016.4
20260905185406 45 355 5.0 5.0 0.00 0.00 0.00 92 1016.3
20260905183404 47 355 5.0 5.0 0.00 0.00 0.00 93 1016.2
20260905182405 46 355 5.0 5.0 0.00 0.00 0.00 93 1016.1
20260905181905 46 355 5.0 6.0 0.00 0.00 0.00 92 1016.1
20260905181405 46 355 4.0 5.0 0.00 0.00 0.00 92 1015.9